Content
SEND FEEDBACK

Daily
Averages
Monthly
Summary
United States of America

ROCK HILL, NEW YORK


Home > North America > United States > New York
Elevation: 1260 feet     Latitude: 41 35N     Longitude: 074 37W

WEATHER
 
SELECT A DAY
Number of Records: 443,635;   Date Range: 1/1/95 - 8/12/14
 
SHARE

PRINT THIS DATA

[ ← Previous Day ]
WEATHER ALMANAC - OCTOBER 21, 2013
[ Next Day → ]
[ °C ]   °F
Weather ElementAverageHighLow
Temperature47.5 °F62.6 °F (2:15 pm)33.8 °F (3:55 am)
Dewpoint32.4 °F37.4 °F (10:35 am)28.4 °F (3:55 am)
Humidity59.3 %87 % (5:35 am)32 % (2:55 pm)
Barometer30.06 in30.14 in (8:55 am)29.96 in (11:55 pm)
Wind Speed4.6 mph12.7 mph (1:55 pm)
Wind Gust17.3 mph (1:15 pm)
Weather ElementAverage
Visibility10 mi
Wind DirectionESE (108.2 °)

Weather ElementTotal
Precipitation---
Heating Degree Days16.8 (Base 65)
Averaged from 71 records on October 21, 2013
WEATHER CONDITIONS BREAKOUT
WIND DIRECTION BREAKOUT
WEATHER BY HOUR - OCTOBER 21, 2013
[ °C ]   °F
Local TimeTemperatureDewpointHumidityBarometerVisibilityWind DirectionWind SpeedGust SpeedPrecipitationEventsConditions
12:35 AM37.4 °F32.0 °F81 %30.06 in10.0 miCalmClear
12:55 AM37.4 °F30.2 °F75 %30.06 in10.0 miCalmClear
1:15 AM35.6 °F30.2 °F81 %30.07 in10.0 miCalmClear
1:35 AM35.6 °F30.2 °F81 %30.07 in10.0 miCalmClear
1:55 AM35.6 °F30.2 °F81 %30.07 in10.0 miCalmClear
2:15 AM35.6 °F30.2 °F81 %30.08 in10.0 miCalmClear
2:35 AM35.6 °F30.2 °F81 %30.08 in10.0 miCalmClear
2:55 AM35.6 °F30.2 °F81 %30.08 in10.0 miCalmClear
3:15 AM35.6 °F30.2 °F81 %30.09 in10.0 miCalmClear
3:35 AM35.6 °F30.2 °F81 %30.09 in10.0 miCalmClear
3:55 AM33.8 °F28.4 °F81 %30.08 in10.0 miCalmClear
4:15 AM33.8 °F28.4 °F81 %30.09 in10.0 miCalmClear
4:35 AM33.8 °F28.4 °F81 %30.10 in10.0 miCalmClear
4:55 AM33.8 °F28.4 °F81 %30.10 in10.0 miCalmClear
5:15 AM33.8 °F28.4 °F81 %30.10 in10.0 miNorth (10°)6.9 mphMostly Cloudy
5:35 AM33.8 °F30.2 °F87 %30.10 in9.0 miCalmOvercast
5:55 AM35.6 °F30.2 °F81 %30.10 in10.0 miCalmOvercast
6:15 AM35.6 °F30.2 °F81 %30.10 in10.0 miCalmOvercast
6:35 AM35.6 °F28.4 °F75 %30.11 in10.0 miCalmPartly Cloudy
6:55 AM35.6 °F28.4 °F75 %30.11 in10.0 miCalmClear
7:15 AM35.6 °F30.2 °F81 %30.12 in10.0 miCalmClear
7:35 AM35.6 °F30.2 °F81 %30.12 in9.0 miCalmClear
7:55 AM33.8 °F28.4 °F81 %30.12 in10.0 miCalmClear
8:15 AM35.6 °F30.2 °F81 %30.13 in9.0 miCalmClear
8:35 AM37.4 °F32.0 °F81 %30.13 in10.0 miCalmClear
8:55 AM39.2 °F33.8 °F81 %30.14 in10.0 miCalmClear
9:15 AM42.8 °F33.8 °F70 %30.14 in10.0 miSouth (190°)3.5 mphClear
9:35 AM44.6 °F33.8 °F66 %30.14 in10.0 miSouth (170°)5.8 mphClear
9:55 AM46.4 °F35.6 °F66 %30.14 in10.0 miCalmClear
10:15 AM48.2 °F35.6 °F62 %30.14 in10.0 miCalmClear
10:35 AM50.0 °F37.4 °F62 %30.13 in10.0 miCalmClear
10:55 AM53.6 °F35.6 °F51 %30.12 in10.0 miSSW (210°)4.6 mphClear
11:15 AM55.4 °F35.6 °F47 %30.11 in10.0 miSSW (210°)4.6 mphClear
11:35 AM57.2 °F35.6 °F44 %30.10 in10.0 miSSW (210°)6.9 mphClear
11:55 AM57.2 °F35.6 °F44 %30.10 in10.0 miSSW (210°)5.8 mphClear
12:15 PM59.0 °F33.8 °F39 %30.10 in10.0 miSW (220°)6.9 mphClear
12:35 PM59.0 °F35.6 °F42 %30.09 in10.0 miSouth (180°)8.1 mphClear
12:55 PM60.8 °F35.6 °F39 %30.08 in10.0 miSSW (200°)4.6 mphClear
1:15 PM60.8 °F33.8 °F36 %30.07 in10.0 miSSW (200°)10.4 mph17.3 mphClear
1:35 PM60.8 °F33.8 °F36 %30.06 in10.0 miSW (220°)11.5 mph17.3 mphClear
1:55 PM60.8 °F33.8 °F36 %30.05 in10.0 miSouth (190°)12.7 mph16.1 mphClear
2:15 PM62.6 °F33.8 °F34 %30.04 in10.0 miSSW (210°)11.5 mph17.3 mphClear
2:35 PM62.6 °F33.8 °F34 %30.03 in10.0 miSSW (210°)11.5 mph16.1 mphClear
2:55 PM62.6 °F32.0 °F32 %30.03 in10.0 miSSE (160°)12.7 mph17.3 mphClear
3:15 PM62.6 °F32.0 °F32 %30.02 in10.0 miSSW (200°)9.2 mph16.1 mphClear
3:35 PM62.6 °F33.8 °F34 %30.02 in10.0 miSSW (210°)9.2 mph16.1 mphClear
3:55 PM62.6 °F32.0 °F32 %30.01 in10.0 miSouth (170°)11.5 mph16.1 mphClear
4:15 PM62.6 °F33.8 °F34 %30.01 in10.0 miSouth (170°)12.7 mphClear
4:35 PM60.8 °F33.8 °F36 %30.01 in10.0 miSouth (190°)9.2 mph16.1 mphClear
4:55 PM60.8 °F32.0 °F34 %30.00 in10.0 miSouth (170°)9.2 mphClear
5:15 PM60.8 °F32.0 °F34 %30.00 in10.0 miSouth (170°)11.5 mph17.3 mphClear
5:35 PM59.0 °F32.0 °F36 %30.01 in10.0 miSouth (180°)11.5 mphClear
5:55 PM57.2 °F32.0 °F38 %30.01 in10.0 miSouth (180°)6.9 mphClear
6:15 PM55.4 °F32.0 °F41 %30.01 in10.0 miSouth (170°)8.1 mphClear
6:35 PM55.4 °F33.8 °F44 %30.01 in10.0 miSSE (160°)6.9 mphClear
6:55 PM51.8 °F33.8 °F50 %30.01 in10.0 miSSE (160°)6.9 mphClear
7:15 PM51.8 °F33.8 °F50 %30.01 in10.0 miSSE (160°)5.8 mphClear
7:35 PM51.8 °F33.8 °F50 %30.01 in10.0 miSSE (160°)5.8 mphClear
7:55 PM51.8 °F33.8 °F50 %30.01 in10.0 miSSE (160°)4.6 mphClear
8:15 PM51.8 °F33.8 °F50 %30.01 in10.0 miSouth (170°)6.9 mphClear
8:35 PM50.0 °F33.8 °F54 %30.01 in10.0 miSouth (170°)6.9 mphClear
8:55 PM48.2 °F33.8 °F58 %30.00 in10.0 miSouth (170°)5.8 mphClear
9:15 PM48.2 °F33.8 °F58 %30.00 in10.0 miSSE (160°)3.5 mphClear
9:35 PM48.2 °F33.8 °F58 %30.00 in10.0 miSouth (190°)3.5 mphClear
9:55 PM48.2 °F33.8 °F58 %30.00 in10.0 miSouth (180°)5.8 mphClear
10:15 PM48.2 °F33.8 °F58 %29.99 in10.0 miSouth (180°)4.6 mphClear
10:35 PM48.2 °F33.8 °F58 %29.99 in10.0 miSouth (190°)8.1 mphClear
10:55 PM48.2 °F33.8 °F58 %29.98 in10.0 miSouth (170°)5.8 mphClear
11:15 PM46.4 °F33.8 °F62 %29.97 in10.0 miSouth (170°)6.9 mphClear
11:35 PM46.4 °F30.2 °F53 %29.97 in10.0 miSSE (160°)6.9 mphClear
11:55 PM46.4 °F32.0 °F57 %29.96 in10.0 miSSE (160°)6.9 mphClear
Hourly data recorded from KMSV, located miles away from Rock Hill, New York







STORIES FROM OUR PARTNERS